Location: Bailleul
(50.3375°N, 2.8513°E)
Time: 22:51:32
(UTC+00:00)

NOAA 16 DEB - Visible Passes

Search period start: 28 January 2022 00:00
Search period end: 07 February 2022 00:00
Orbit: 841 x 864 km, 98.7° (Epoch: 28 January)

Date Brightness Start Highest point End Pass type
(mag) Time Alt. Az. Time Alt. Az. Time Alt. Az.
28 Jan ? 18:40:54 38° E 18:41:42 41° ENE 18:46:47 10° N visible
28 Jan ? 20:22:56 36° W 20:22:56 36° W 20:27:34 10° NNW visible
29 Jan ? 18:29:19 31° E 18:30:33 34° ENE 18:35:26 10° N visible
29 Jan ? 20:11:21 45° W 20:11:21 45° W 20:16:27 10° NNW visible
30 Jan ? 18:17:44 24° E 18:19:26 29° ENE 18:24:04 10° N visible
30 Jan ? 19:59:46 54° WSW 19:59:55 54° W 20:05:18 10° NNW visible
31 Jan ? 18:06:09 19° E 18:08:19 25° ENE 18:12:38 10° N visible
31 Jan ? 19:48:11 63° SW 19:48:38 66° WSW 19:54:06 10° NNW visible
31 Jan ? 21:30:13 11° W 21:30:28 11° W 21:31:47 10° WNW visible
01 Feb ? 17:54:34 15° E 17:57:13 21° NE 18:01:11 10° N visible
01 Feb ? 19:36:36 65° S 19:37:23 80° WSW 19:42:53 10° NNW visible
01 Feb ? 21:18:37 14° W 21:19:01 14° W 21:21:43 10° NW visible
02 Feb ? 17:42:58 11° E 17:46:08 18° NE 17:49:39 10° NNE visible
02 Feb ? 19:25:00 58° SSE 19:26:08 85° ENE 19:31:39 10° NNW visible
02 Feb ? 21:07:01 17° W 21:07:37 17° W 21:11:05 10° NW visible
03 Feb ? 17:32:04 10° E 17:35:04 15° NE 17:38:03 10° NNE visible
03 Feb ? 19:13:24 48° SE 19:14:55 71° ENE 19:20:23 10° NNW visible
03 Feb ? 20:55:26 20° WSW 20:56:13 21° W 21:00:16 10° NW visible
04 Feb ? 17:21:43 10° ENE 17:24:00 13° NE 17:26:18 10° NNE visible
04 Feb ? 19:01:47 38° SE 19:03:42 59° ENE 19:09:05 10° N visible
04 Feb ? 20:43:49 24° WSW 20:44:50 25° W 20:49:19 10° NW visible
05 Feb ? 18:50:12 30° ESE 18:52:31 49° ENE 18:57:45 10° N visible
05 Feb ? 20:32:13 27° WSW 20:33:29 30° W 20:38:16 10° NNW visible
06 Feb ? 18:38:35 24° ESE 18:41:20 41° ENE 18:46:25 10° N visible
06 Feb ? 20:20:37 31° SW 20:22:08 37° W 20:27:11 10° NNW visible
